Flag for Germany Weather past 2 weeks in Nuremberg, Bavaria, Germany

Now
41 °F

Passing clouds.


Feels Like: 37 °F
Forecast: 41 / 50 °F
Wind: 6 mph from Southwest

Location: Nuernberg

Current Time: Dec 17, 2014 at 9:30:02 PM

Latest Report: Dec 17, 2014 at 8:50 PM


Visibility: N/A

Pressure: 29.83 "Hg

Humidity: 93%

Dew point: 39 °F

Location of NurembergLocation

Historic Weather in Nuremberg — Graph

°F

Nuremberg temperature yesterday

Maximum temperature yesterday: 43 °F (at 12:20 PM)
Minimum temperature yesterday: 37 °F (at 12:20 AM)
Average temperature yesterday: 40 °F

Past Weeks' High & Low Weather Summary

 TemperatureHumidityPressure
High52 °F (Dec 13, 12:20 PM)100% (Dec 2, 8:50 PM)30.45 "Hg (Dec 2, 8:50 PM)
Low23 °F (Dec 9, 3:50 AM)58% (Dec 13, 12:20 PM)29.71 "Hg (Dec 12, 3:50 PM)
Average38 °F93%30.02 "Hg
* Reported Dec 2 8:20 PM — Dec 17 8:20 PM, Nuremberg, Weather by CustomWeather, © 2014

Note: Actual official high and low records may vary slightly from our data, if they occured in-between our weather recording intervals... More about our weather records

Advertising

Nuremberg weather history for previous 24 hours

 ConditionsComfort  
Time TempWeatherWind HumidityBarometerVisibility
8:20 PM
Dec 17
39 °FPassing clouds.6 mph100%29.80 "HgN/A
7:50 PM39 °FPassing clouds.6 mph93%29.80 "HgN/A
7:20 PM37 °FLight rain. Passing clouds.6 mph100%29.80 "HgN/A
6:50 PM37 °FLight rain. Passing clouds.6 mph100%29.80 "HgN/A
6:20 PM37 °FLight rain. Passing clouds.8 mph100%29.80 "HgN/A
5:50 PM37 °FLight rain. Passing clouds.9 mph93%29.77 "HgN/A
5:20 PM37 °FLight rain. Passing clouds.8 mph100%29.77 "HgN/A
4:50 PM39 °FLight rain. Mostly cloudy.6 mph93%29.77 "Hg6 mi
4:20 PM37 °FLight rain. Mostly cloudy.6 mph100%29.77 "Hg6 mi
3:50 PM37 °FLight rain. Mostly cloudy.7 mph100%29.74 "Hg6 mi
3:20 PM37 °FLight rain. Broken clouds.8 mph100%29.77 "Hg6 mi
2:50 PM37 °FLight rain. Partly sunny.8 mph93%29.77 "Hg6 mi
2:20 PM39 °FLight rain. Partly sunny.8 mph87%29.77 "Hg6 mi
1:50 PM39 °FLight rain. Broken clouds.6 mph87%29.80 "HgN/A
1:20 PM39 °FLight rain. Broken clouds.6 mph87%29.80 "HgN/A
12:50 PM39 °FLight rain. Broken clouds.7 mph81%29.80 "HgN/A
12:20 PM37 °FPartly sunny.7 mph87%29.83 "HgN/A
11:50 AM37 °FPartly sunny.7 mph87%29.86 "HgN/A
11:20 AM37 °FPartly sunny.5 mph87%29.86 "HgN/A
10:50 AM37 °FPartly sunny.7 mph87%29.89 "HgN/A
10:20 AM37 °FPartly sunny.6 mph87%29.89 "HgN/A
9:50 AM36 °FPartly sunny.5 mph87%29.92 "HgN/A
9:20 AM36 °FPartly sunny.2 mph87%29.92 "HgN/A
8:50 AM34 °FPartly sunny.2 mph93%29.92 "HgN/A
8:20 AM32 °FScattered clouds.2 mph100%29.92 "HgN/A
7:50 AM32 °FPassing clouds.3 mph100%29.95 "HgN/A
7:20 AM34 °FPassing clouds.5 mph100%29.95 "HgN/A
6:50 AM34 °FFog.3 mph100%29.95 "HgN/A
6:20 AM30 °FFog.3 mph100%29.95 "Hg6 mi
5:50 AM32 °FFog.3 mph100%29.95 "Hg6 mi
5:20 AM34 °FPassing clouds.1 mph93%29.95 "Hg6 mi
4:20 AM36 °FPassing clouds.3 mph93%29.95 "HgN/A
3:50 AM36 °FPassing clouds.6 mph93%29.95 "HgN/A
3:20 AM36 °FFog.3 mph93%29.98 "HgN/A
2:50 AM36 °FFog.1 mph93%29.98 "HgN/A
2:20 AM36 °FFog.1 mph93%29.95 "HgN/A
1:50 AM36 °FFog.1 mph93%29.95 "HgN/A
1:20 AM36 °FPassing clouds.3 mph93%29.95 "HgN/A
12:50 AM37 °FPassing clouds.2 mph93%29.95 "HgN/A
12:20 AM37 °FPassing clouds.5 mph93%29.95 "HgN/A
11:50 PM
Dec 16
39 °FPassing clouds.7 mph93%29.95 "HgN/A
11:20 PM39 °FPassing clouds.8 mph93%29.95 "HgN/A
10:50 PM39 °FPassing clouds.6 mph93%29.95 "HgN/A
10:20 PM39 °FPassing clouds.7 mph93%29.95 "HgN/A
9:50 PM41 °FPassing clouds.7 mph87%29.92 "HgN/A
9:20 PM41 °FPartly cloudy.7 mph93%29.92 "HgN/A
Weather by CustomWeather, © 2014

See weather overviewHow to use our weather pages